Showing default

OPS 1527 (OV3-1), 2150

Orbit data source: Space-Track

OPS 1527 (OV3-1), 2150 is a payload satellite owned by USAF OAR (US) in LEO that was launched on Fri, 22 Apr 1966 UTC via an SCOUT B launch vehicle from the Air Force Western Test Range (AFWTR). Payloads include a variety of satellites, spacecraft, and rockets equipped with specific instruments for various scientific and technological missions. These include communications satellites like Starlink; space stations such as the ISS; scientific satellites like the Hubble; Earth observation satellites from companies like Planet Labs, Umbra, and HawkEye 360; GPS; miniature CubeSats for education and research; and military/defense satellites.

Loading next visibility...
OPS 1527 (OV3-1) details
Identifier
2150, 1966-034A
Orbit
LEO
Last TLE update16 hours ago
Origin
Flag of USUSAF OAR (US)
ManufacturerSpace General
MissionCivil Science
Bus & MotorOV3, Unknown motor
Mass69 kg wet, 69 kg dry
Launch date (UTC)
1966-04-22 (59 years ago)
Launch vehicle
SCOUT B
Launch site
Air Force Western Test Range (AFWTR)
Object type
Payload
Rocket body
Debris
Shape & HBROct Cyl, 0.74 m
Radar Cross Section0.613 m², Medium (>0.1 m² and < 1m²)

Expand to show TLE details & history

TLE from 16 hours ago
0 OPS 1527 (OV3-1)
1  2150U 66034A   25023.08367835  .00028704  00000-0  15667-2 0  9997
2  2150  82.3702 161.1637 1455788 129.5392 244.3761 12.47732379337843
Epoch: 2025-01-23T02:00Z
Definitive object data (Epoch: 2025-01-23T02:00:29.809Z)
Latitude-0.00006°
Longitude8.3732°
Altitude2,093.633 km
Speed6.586 km/s
True Right ascension10h 44m 39s
True Declination0° 00' 00"
Sunlit
Object was in full shadow at TLE epoch
Visualization TLE readout
Latitude75.47107°
Longitude157.0049°
Altitude427.849 km
Speed8.163 km/s
Apparent Right ascension06h 22m 08s
Apparent Declination36° 22' 39"
Sunlit
Object is in daylight
Visualization observer readout
Local Sidereal Time19:07:32
Azimuth9.359° NNE
Elevation-12.995°
Doppler factor1
Orbital elements
Apogee altitude2,613.962 km
Perigee altitude328.551 km
Semi-major axis7,849.394 km
Eccentricity0.1455788
Inclination82.3702°
RAAN161.1637°
Arg. of periapsis129.5392°
True anomaly230.56811°
Mean anomaly244.3761°
Eccentric anomaly237.35286°
Mean motion3.12097 °/min
BSTAR0.0015667
Orbital period115.35 mins
Loading maneuver chart data...
Loading historical data...
Loading historical data...
Loading historical data...
Loading historical data...
Loading historical data...
Loading historical data...
Loading historical data...

OPS 1527 (OV3-1) Visibility forecast

Observer location: undefined°, undefined

Span
Click to sort rows by Start time (UTC) header in descending order
Start Az.
Max El. time (UTC)
Max El. Az.
Max El.
End time (UTC)
End Az.
13 mins2025-01-24 08:53:43.862Z156.964° SSE2025-01-24 09:00:43.862Z104.288° ESE33.661°2025-01-24 09:06:43.862Z27.128° NE
11 mins2025-01-24 10:50:43.862Z224.145° SW2025-01-24 10:57:43.862Z284.01° WNW27.97°2025-01-24 11:01:43.862Z334.902° NNW
|